Погода в Бате

Великобритания     51°22′45″N   2°22′03″W
темп.,
°C
ветер,
м/с
пор.,
м/с
влажн.,
%
обл.,
%
осадки,
мм/ч
давл.,
гПа
погр.,
м
16 апреля, пт
пт1601:000всв22925 0.0 103313
04:00−1св22945 0.0 103318
07:00−1св22945 0.0 103329
10:00+6св34745 0.0 1032644
13:00+9всв335984 0.1 10311566
16:00+8всв3358100 0.1 10301417
19:00+8св116571 0.1 103022
22:00+2св22825 0.0 103110
17 апреля, сб
сб1701:000всв22865 0.0 103111
04:00−1всв11885 0.0 103110
07:000всв11875 0.0 103113
10:00+7всв23678 0.0 1031563
13:00+10всв22555 0.0 10291336
16:00+11всв22547 0.0 10271368
19:00+9в22725 0.0 102726
22:00+3вюв117833 0.0 102810
18 апреля, вс
вс1801:00+2в118197 0.0 102710
04:00+1в0084100 0.0 102610
07:00+3юв0081100 0.0 102610
10:00+8вюв1170100 0.0 1026380
13:00+11ю1164100 0.0 10251153
16:00+11юв006069 0.1 10231220
19:00+10с1169100 0.1 102313
22:00+8в1166100 0.0 102310
19 апреля, пн
пн1901:00+6вюв127430 0.0 102320
04:00+2в11815 0.0 102210
07:00+2всв22815 0.0 102221
10:00+9вюв34685 0.0 1021541
13:00+12юв346054 0.0 10201429
16:00+11юв2374100 0.0 101985
19:00+9всв1175100 0.1 101811
22:00+5ююв118411 0.0 101910
20 апреля, вт
вт2001:00+6ююз1184100 0.0 101816
04:00+6ююз1180100 0.0 101811
07:00+4ююз1183100 0.0 101811
10:00+10зюз1169100 0.0 1018433
13:00+12з226197 0.1 10171192
16:00+11з5567100 0.1 1016907
19:00+9ссз5888100 0.5 1016443
22:00+5ссз41291100 0.5 1018577